Location: Juiz de Fora
(21.7500°S, 43.3330°W)
Time: 20:26:09
(UTC-03:00)

Hubble Space Telescope - Visible Passes

Search period start: 19 June 2024 00:00
Search period end: 29 June 2024 00:00
Orbit: 510 x 514 km, 28.5° (Epoch: 19 June)

Date Brightness Start Highest point End Pass type
(mag) Time Alt. Az. Time Alt. Az. Time Alt. Az.
19 Jun 1.3 19:07:31 10° WNW 19:10:45 55° W 19:10:45 55° W visible
20 Jun 0.7 18:48:29 10° W 18:52:27 65° SSW 18:52:49 61° SSE visible
21 Jun 0.9 18:29:27 10° W 18:33:24 57° SSW 18:34:50 35° SE visible
22 Jun 1.1 18:10:24 10° W 18:14:19 51° SSW 18:16:50 20° SE visible
23 Jun 1.3 17:51:22 10° W 17:55:14 46° SSW 17:58:49 12° ESE visible
23 Jun 3.3 19:32:39 10° WSW 19:33:37 16° SW 19:33:37 16° SW visible
24 Jun 2.6 19:13:35 10° WSW 19:15:36 23° SW 19:15:36 23° SW visible
25 Jun 1.9 18:54:30 10° WSW 18:57:36 29° SSW 18:57:36 29° SSW visible
26 Jun 1.7 18:35:24 10° WSW 18:39:00 31° S 18:39:37 29° SSE visible
27 Jun 1.7 18:16:17 10° WSW 18:19:54 31° S 18:21:41 22° SE visible
28 Jun 1.6 17:57:09 10° WSW 18:00:48 33° S 18:03:49 14° ESE visible
28 Jun 3.3 19:37:38 10° WSW 19:38:38 17° WSW 19:38:38 17° WSW visible
